Time,TemperatureF,DewpointF,PressureIn,WindDirection,WindDirectionDegrees,WindSpeedMPH,WindSpeedGustMPH,Humidity,HourlyPrecipIn,Conditions,Clouds,dailyrainin,SoftwareType,DateUTC
2013-09-23 00:14:00,63.0,-99.9,-100.00,South,190,2.0,6.0,-999,-99.99,,,-99.99,,2013-09-23 04:14:00,
2013-09-23 00:24:00,63.0,-99.9,-100.00,South,190,2.0,6.0,-999,-99.99,,,-99.99,,2013-09-23 04:24:00,
2013-09-23 00:34:00,63.0,-99.9,-100.00,South,190,2.0,6.0,-999,-99.99,,,-99.99,,2013-09-23 04:34:00,
2013-09-23 00:40:00,62.0,-99.9,-100.00,SSE,150,1.0,5.0,-999,-99.99,,,-99.99,,2013-09-23 04:40:00,
2013-09-23 01:12:00,62.0,-99.9,-100.00,SSE,150,1.0,5.0,-999,-99.99,,,-99.99,,2013-09-23 05:12:00,
2013-09-23 01:23:00,62.0,-99.9,-100.00,SSE,150,1.0,5.0,-999,-99.99,,,-99.99,,2013-09-23 05:23:00,
2013-09-23 01:34:00,62.0,-99.9,-100.00,SSE,150,1.0,5.0,-999,-99.99,,,-99.99,,2013-09-23 05:34:00,
2013-09-23 01:40:00,66.0,-99.9,-100.00,ENE,70,5.0,10.0,-999,-99.99,,,-99.99,,2013-09-23 05:40:00,
2013-09-23 02:13:00,66.0,-99.9,-100.00,ENE,70,5.0,10.0,-999,-99.99,,,-99.99,,2013-09-23 06:13:00,
2013-09-23 02:22:00,66.0,-99.9,-100.00,ENE,70,5.0,10.0,-999,-99.99,,,-99.99,,2013-09-23 06:22:00,
2013-09-23 02:32:00,66.0,-99.9,-100.00,ENE,70,5.0,10.0,-999,-99.99,,,-99.99,,2013-09-23 06:32:00,
2013-09-23 02:40:00,68.0,-99.9,-100.00,ENE,70,6.0,16.0,-999,-99.99,,,-99.99,,2013-09-23 06:40:00,
2013-09-23 03:12:00,68.0,-99.9,-100.00,ENE,70,6.0,16.0,-999,-99.99,,,-99.99,,2013-09-23 07:12:00,
2013-09-23 03:22:00,68.0,-99.9,-100.00,ENE,70,6.0,16.0,-999,-99.99,,,-99.99,,2013-09-23 07:22:00,
2013-09-23 03:32:00,68.0,-99.9,-100.00,ENE,70,6.0,16.0,-999,-99.99,,,-99.99,,2013-09-23 07:32:00,
2013-09-23 03:40:00,65.0,-99.9,-100.00,East,100,2.0,9.0,-999,-99.99,,,-99.99,,2013-09-23 07:40:00,
2013-09-23 04:11:00,65.0,-99.9,-100.00,East,100,2.0,9.0,-999,-99.99,,,-99.99,,2013-09-23 08:11:00,
2013-09-23 04:23:00,65.0,-99.9,-100.00,East,100,2.0,9.0,-999,-99.99,,,-99.99,,2013-09-23 08:23:00,
2013-09-23 04:32:00,65.0,-99.9,-100.00,East,100,2.0,9.0,-999,-99.99,,,-99.99,,2013-09-23 08:32:00,
2013-09-23 04:40:00,62.0,-99.9,-100.00,South,170,1.0,7.0,-999,-99.99,,,-99.99,,2013-09-23 08:40:00,
2013-09-23 05:11:00,62.0,-99.9,-100.00,South,170,1.0,7.0,-999,-99.99,,,-99.99,,2013-09-23 09:11:00,
2013-09-23 05:22:00,62.0,-99.9,-100.00,South,170,1.0,7.0,-999,-99.99,,,-99.99,,2013-09-23 09:22:00,
2013-09-23 05:33:00,62.0,-99.9,-100.00,South,170,1.0,7.0,-999,-99.99,,,-99.99,,2013-09-23 09:33:00,
2013-09-23 05:40:00,59.0,-99.9,-100.00,SSW,210,1.0,5.0,-999,-99.99,,,-99.99,,2013-09-23 09:40:00,
2013-09-23 06:13:00,59.0,-99.9,-100.00,SSW,210,1.0,5.0,-999,-99.99,,,-99.99,,2013-09-23 10:13:00,
2013-09-23 06:23:00,59.0,-99.9,-100.00,SSW,210,1.0,5.0,-999,-99.99,,,-99.99,,2013-09-23 10:23:00,
2013-09-23 06:33:00,59.0,-99.9,-100.00,SSW,210,1.0,5.0,-999,-99.99,,,-99.99,,2013-09-23 10:33:00,
2013-09-23 06:40:00,60.0,-99.9,-100.00,North,0,0.0,2.0,-999,-99.99,,,-99.99,,2013-09-23 10:40:00,
2013-09-23 07:12:00,60.0,-99.9,-100.00,North,0,0.0,2.0,-999,-99.99,,,-99.99,,2013-09-23 11:12:00,
2013-09-23 07:22:00,60.0,-99.9,-100.00,North,0,0.0,2.0,-999,-99.99,,,-99.99,,2013-09-23 11:22:00,
2013-09-23 07:33:00,60.0,-99.9,-100.00,North,0,0.0,2.0,-999,-99.99,,,-99.99,,2013-09-23 11:33:00,
2013-09-23 07:40:00,62.0,-99.9,-100.00,North,350,5.0,6.0,-999,-99.99,,,-99.99,,2013-09-23 11:40:00,
2013-09-23 08:11:00,62.0,-99.9,-100.00,North,350,5.0,6.0,-999,-99.99,,,-99.99,,2013-09-23 12:11:00,
2013-09-23 08:22:00,62.0,-99.9,-100.00,North,350,5.0,6.0,-999,-99.99,,,-99.99,,2013-09-23 12:22:00,
2013-09-23 08:32:00,62.0,-99.9,-100.00,North,350,5.0,6.0,-999,-99.99,,,-99.99,,2013-09-23 12:32:00,
2013-09-23 08:40:00,65.0,-99.9,-100.00,North,0,0.0,6.0,-999,-99.99,,,-99.99,,2013-09-23 12:40:00,
2013-09-23 09:11:00,65.0,-99.9,-100.00,North,0,0.0,6.0,-999,-99.99,,,-99.99,,2013-09-23 13:11:00,
2013-09-23 09:22:00,65.0,-99.9,-100.00,North,0,0.0,6.0,-999,-99.99,,,-99.99,,2013-09-23 13:22:00,
2013-09-23 09:32:00,65.0,-99.9,-100.00,North,0,0.0,6.0,-999,-99.99,,,-99.99,,2013-09-23 13:32:00,
2013-09-23 09:40:00,69.0,-99.9,-100.00,NNE,30,2.0,7.0,-999,-99.99,,,-99.99,,2013-09-23 13:40:00,
2013-09-23 10:12:00,69.0,-99.9,-100.00,NNE,30,2.0,7.0,-999,-99.99,,,-99.99,,2013-09-23 14:12:00,
2013-09-23 10:22:00,69.0,-99.9,-100.00,NNE,30,2.0,7.0,-999,-99.99,,,-99.99,,2013-09-23 14:22:00,
2013-09-23 10:33:00,69.0,-99.9,-100.00,NNE,30,2.0,7.0,-999,-99.99,,,-99.99,,2013-09-23 14:33:00,
2013-09-23 10:40:00,72.0,-99.9,-100.00,North,0,0.0,5.0,-999,-99.99,,,-99.99,,2013-09-23 14:40:00,
2013-09-23 11:12:00,72.0,-99.9,-100.00,North,0,0.0,5.0,-999,-99.99,,,-99.99,,2013-09-23 15:12:00,
2013-09-23 11:22:00,72.0,-99.9,-100.00,North,0,0.0,5.0,-999,-99.99,,,-99.99,,2013-09-23 15:22:00,
2013-09-23 11:33:00,72.0,-99.9,-100.00,North,0,0.0,5.0,-999,-99.99,,,-99.99,,2013-09-23 15:33:00,
2013-09-23 11:40:00,75.0,-99.9,-100.00,ENE,60,5.0,13.0,-999,-99.99,,,-99.99,,2013-09-23 15:40:00,
2013-09-23 12:12:00,75.0,-99.9,-100.00,ENE,60,5.0,13.0,-999,-99.99,,,-99.99,,2013-09-23 16:12:00,
2013-09-23 12:24:00,75.0,-99.9,-100.00,ENE,60,5.0,13.0,-999,-99.99,,,-99.99,,2013-09-23 16:24:00,
2013-09-23 12:33:00,75.0,-99.9,-100.00,ENE,60,5.0,13.0,-999,-99.99,,,-99.99,,2013-09-23 16:33:00,
2013-09-23 12:40:00,78.0,-99.9,-100.00,North,0,0.0,7.0,-999,-99.99,,,-99.99,,2013-09-23 16:40:00,
2013-09-23 13:12:00,78.0,-99.9,-100.00,North,0,0.0,7.0,-999,-99.99,,,-99.99,,2013-09-23 17:12:00,
2013-09-23 13:24:00,78.0,-99.9,-100.00,North,0,0.0,7.0,-999,-99.99,,,-99.99,,2013-09-23 17:24:00,
2013-09-23 13:34:00,78.0,-99.9,-100.00,North,0,0.0,7.0,-999,-99.99,,,-99.99,,2013-09-23 17:34:00,
2013-09-23 13:40:00,79.0,-99.9,-100.00,NNW,340,2.0,7.0,-999,-99.99,,,-99.99,,2013-09-23 17:40:00,
2013-09-23 14:13:00,79.0,-99.9,-100.00,NNW,340,2.0,7.0,-999,-99.99,,,-99.99,,2013-09-23 18:13:00,
2013-09-23 14:22:00,79.0,-99.9,-100.00,NNW,340,2.0,7.0,-999,-99.99,,,-99.99,,2013-09-23 18:22:00,
2013-09-23 14:33:00,79.0,-99.9,-100.00,NNW,340,2.0,7.0,-999,-99.99,,,-99.99,,2013-09-23 18:33:00,
2013-09-23 14:40:00,77.0,-99.9,-100.00,NE,50,6.0,9.0,-999,-99.99,,,-99.99,,2013-09-23 18:40:00,
2013-09-23 15:12:00,77.0,-99.9,-100.00,NE,50,6.0,9.0,-999,-99.99,,,-99.99,,2013-09-23 19:12:00,
2013-09-23 15:22:00,77.0,-99.9,-100.00,NE,50,6.0,9.0,-999,-99.99,,,-99.99,,2013-09-23 19:22:00,
2013-09-23 15:33:00,77.0,-99.9,-100.00,NE,50,6.0,9.0,-999,-99.99,,,-99.99,,2013-09-23 19:33:00,
2013-09-23 15:40:00,79.0,-99.9,-100.00,North,0,0.0,7.0,-999,-99.99,,,-99.99,,2013-09-23 19:40:00,
2013-09-23 16:12:00,79.0,-99.9,-100.00,North,0,0.0,7.0,-999,-99.99,,,-99.99,,2013-09-23 20:12:00,
2013-09-23 16:22:00,79.0,-99.9,-100.00,North,0,0.0,7.0,-999,-99.99,,,-99.99,,2013-09-23 20:22:00,
2013-09-23 16:32:00,79.0,-99.9,-100.00,North,0,0.0,7.0,-999,-99.99,,,-99.99,,2013-09-23 20:32:00,
2013-09-23 16:40:00,78.0,-99.9,-100.00,NNE,20,7.0,13.0,-999,-99.99,,,-99.99,,2013-09-23 20:40:00,
2013-09-23 17:12:00,78.0,-99.9,-100.00,NNE,20,7.0,13.0,-999,-99.99,,,-99.99,,2013-09-23 21:12:00,
2013-09-23 17:23:00,78.0,-99.9,-100.00,NNE,20,7.0,13.0,-999,-99.99,,,-99.99,,2013-09-23 21:23:00,
2013-09-23 17:34:00,78.0,-99.9,-100.00,NNE,20,7.0,13.0,-999,-99.99,,,-99.99,,2013-09-23 21:34:00,
2013-09-23 17:40:00,78.0,-99.9,-100.00,NNE,20,9.0,14.0,-999,-99.99,,,-99.99,,2013-09-23 21:40:00,
2013-09-23 18:14:00,78.0,-99.9,-100.00,NNE,20,9.0,14.0,-999,-99.99,,,-99.99,,2013-09-23 22:14:00,
2013-09-23 18:24:00,78.0,-99.9,-100.00,NNE,20,9.0,14.0,-999,-99.99,,,-99.99,,2013-09-23 22:24:00,
2013-09-23 18:33:00,78.0,-99.9,-100.00,NNE,20,9.0,14.0,-999,-99.99,,,-99.99,,2013-09-23 22:33:00,
2013-09-23 18:40:00,78.0,-99.9,-100.00,NE,40,7.0,10.0,-999,-99.99,,,-99.99,,2013-09-23 22:40:00,
2013-09-23 19:12:00,78.0,-99.9,-100.00,NE,40,7.0,10.0,-999,-99.99,,,-99.99,,2013-09-23 23:12:00,
2013-09-23 19:23:00,78.0,-99.9,-100.00,NE,40,7.0,10.0,-999,-99.99,,,-99.99,,2013-09-23 23:23:00,
2013-09-23 19:34:00,78.0,-99.9,-100.00,NE,40,7.0,10.0,-999,-99.99,,,-99.99,,2013-09-23 23:34:00,
2013-09-23 19:40:00,75.0,-99.9,-100.00,NE,40,6.0,7.0,-999,-99.99,,,-99.99,,2013-09-23 23:40:00,
2013-09-23 20:12:00,75.0,-99.9,-100.00,NE,40,6.0,7.0,-999,-99.99,,,-99.99,,2013-09-24 00:12:00,
2013-09-23 20:22:00,75.0,-99.9,-100.00,NE,40,6.0,7.0,-999,-99.99,,,-99.99,,2013-09-24 00:22:00,
2013-09-23 20:32:00,75.0,-99.9,-100.00,NE,40,6.0,7.0,-999,-99.99,,,-99.99,,2013-09-24 00:32:00,
2013-09-23 20:40:00,73.0,-99.9,-100.00,ENE,60,5.0,9.0,-999,-99.99,,,-99.99,,2013-09-24 00:40:00,
2013-09-23 21:12:00,73.0,-99.9,-100.00,ENE,60,5.0,9.0,-999,-99.99,,,-99.99,,2013-09-24 01:12:00,
2013-09-23 21:22:00,73.0,-99.9,-100.00,ENE,60,5.0,9.0,-999,-99.99,,,-99.99,,2013-09-24 01:22:00,
2013-09-23 21:32:00,73.0,-99.9,-100.00,ENE,60,5.0,9.0,-999,-99.99,,,-99.99,,2013-09-24 01:32:00,
2013-09-23 21:40:00,71.0,-99.9,-100.00,ENE,70,3.0,9.0,-999,-99.99,,,-99.99,,2013-09-24 01:40:00,
2013-09-23 22:12:00,71.0,-99.9,-100.00,ENE,70,3.0,9.0,-999,-99.99,,,-99.99,,2013-09-24 02:12:00,
2013-09-23 22:23:00,71.0,-99.9,-100.00,ENE,70,3.0,9.0,-999,-99.99,,,-99.99,,2013-09-24 02:23:00,
2013-09-23 22:32:00,71.0,-99.9,-100.00,ENE,70,3.0,9.0,-999,-99.99,,,-99.99,,2013-09-24 02:32:00,
2013-09-23 22:40:00,69.0,-99.9,-100.00,East,100,2.0,8.0,-999,-99.99,,,-99.99,,2013-09-24 02:40:00,
2013-09-23 23:12:00,69.0,-99.9,-100.00,East,100,2.0,8.0,-999,-99.99,,,-99.99,,2013-09-24 03:12:00,
2013-09-23 23:22:00,69.0,-99.9,-100.00,East,100,2.0,8.0,-999,-99.99,,,-99.99,,2013-09-24 03:22:00,
2013-09-23 23:35:00,69.0,-99.9,-100.00,East,100,2.0,8.0,-999,-99.99,,,-99.99,,2013-09-24 03:35:00,
2013-09-23 23:40:00,67.0,-99.9,-100.00,East,90,2.0,7.0,-999,-99.99,,,-99.99,,2013-09-24 03:40:00,